OPS 4682 DEB, 19576

Orbit data source: Space-Track

OPS 4682 DEB, 19576 is space debris in LEO originally from a launch on Sat, 03 Apr 1965 UTC launched from the Air Force Western Test Range (AFWTR). Debris objects in space refer to the collection of defunct objects orbiting the Earth. Examples of debris include non-operational satellites, rocket bodies, and fragments generated from explosions, collisions, or faulty payload assembly.

Loading next visibility...
Identifier
19576, 1965-027AV
Orbit
LEO
Country
Flag of USUS
Related business
Manufacturer
Unknown
Mission
Spacecraft
Bus & Motor
Unknown
Mass
Unknown
Launch date (UTC)
1965-04-03 (61 years ago)
Launch vehicle
Unknown
Launch site
Air Force Western Test Range (AFWTR)
Object type
Payload
Rocket body
Debris
Shape & HBR
Unknown shape, 0.1 m
Radar Cross Section
Medium (>0.1 m² and <1 m²)

Expand to show TLE details & history
Last TLE update: 1 day ago

TLE from 1 day ago
0 OPS 4682 DEB
1 19576U 65027AV  26150.06368574 -.00000274  00000-0 -92582-3 0  9995
2 19576  90.2392   8.6935 0025262 264.6930 252.2798 13.00712057795993
Epoch: 2026-05-30T01:31Z
TLE epoch observation values (Epoch: 2026-05-30T01:31:42.447Z)
Latitude
23.31975°
Longitude
-81.71585°
Altitude
1,268.037 km
Speed
7.221 km/s
True Right ascension
12h 35m 11s
True Declination
23° 12' 12"
Sunlit
Object was in daylight at epoch
Visualization orbit readout
Latitude
Unknown
Longitude
Unknown
Altitude
Unknown
Speed
Unknown
Apparent Right ascension
Unknown
Apparent Declination
Unknown
Sunlit
N/A
Visualization observer readout
Local Sidereal Time
15:25:33
Azimuth
Unknown
Elevation
Unknown
Doppler factor
Unknown
Orbital elements
Apogee altitude
1,275.71 km
Perigee altitude
1,237.138 km
Semi-major axis
7,634.561 km
Eccentricity
0.00253
Inclination
90.2392°
RAAN
8.6935°
Arg. of periapsis
264.693°
True anomaly
252.00432°
Mean anomaly
252.2798°
Eccentric anomaly
252.14203°
Mean motion
3.25362 °/min
Orbital period
110.65 mins
BSTAR
-0.00092582
Loading maneuver chart data...
Computing Atmospheric mass density...
Loading historical data...
Loading historical data...
Loading historical data...
Loading historical data...
Loading historical data...
Loading historical data...
Loading historical data...

Documentation

Showing up to 5 results
|